Tracking 19792 objects as of 15-Jul-2019
HD Live streaming from Space Station
objects crossing your sky now

FLOCK 3P 75

Track FLOCK 3P 75 now!
10-day predictions
FLOCK 3P 75 is classified as:


NORAD ID: 41979
Int'l Code: 2017-008AH
Perigee: 490.1 km
Apogee: 503.0 km
Inclination: 97.4 °
Period: 94.4 minutes
Semi major axis: 6867 km
RCS: Unknown
Launch date: February 15, 2017
Source: United States (US)
Launch site: SRIHARIKOTA (SRI)
aabbcc
Your satellite tracking list
Your tracking list is empty




NASA's NSSDC Master Catalog

Two Line Element Set (TLE):
1 41979U 17008AH  19196.19472370  .00001090  00000-0  45905-4 0  9992
2 41979  97.4082 263.2260 0009416  59.2493 300.9671 15.25467297133994
Source of the keplerian elements: AFSPC